METAR Formatted Surface Weather Observation
Issued by NWS

Home | Current Version | Previous Version | Text Only | Print | Product List | Glossary On
Versions: 1 2 3 4 5 6 7 8 9 10 11 12 13 14 15 16 17 18 19 20 21 22 23 24 25 26 27 28 29 30 31 32 33 34 35 36 37 38 39 40 41 42 43 44 45 46 47 48 49 50
000
SAUS45 KLKN 270600 COR
MTRWMC
METAR KWMC 270556Z AUTO 13007KT 10SM FEW065 FEW110 12/09 A2996 RMK
AO2 PK WND 25030/0458 WSHFT 0456 RAE46 SLP114 P0003 60004 T01220089
10211 20122 50009 TSNO



USA.gov is the U.S. government's official web portal to all federal, state and local government web resources and services.